User: anonymous   Login
Location: Meriden
(44.0740°N, 93.3870°W)
Time: 09:32:56
(UTC-05:00)
Language:

AO-27 - Orbit

View from above orbital plane
View from above orbital plane
View from above satellite
View from above satellite

Ground track
Ground track

The orbit data is extracted from the following two-line orbital elements,

1 22825U 93061C   15141.13615981  .00000132  00000-0  68556-4 0  9994
2 22825 098.7066 091.2413 0009087 034.6641 086.2536 14.29878754129079
Epoch (UTC): 21 May 2015 03:16:04
Eccentricity: 0.0009087
inclination: 98.7066°
perigee height: 785 km
apogee height: 798 km
right ascension of ascending node: 91.2413°
argument of perigee: 34.6641°
revolutions per day: 14.29878754
mean anomaly at epoch: 86.2536°
orbit number at epoch: 12907

The dashed part of the orbit path shows where the satellite is in the earth's shadow,  

DLR